[[{"header":{"parameterUnit":"m.s-1","parameterCategory":1,"la1":30.2992,"la2":30.254,"lo1":-89.0895,"lo2":-89.0443,"dy":0.0025,"dx":0.0025,"nx":19,"ny":19,"refTime":"2026-04-23T21:00:00:Z","depth":0,"parameterNumber":2,"parameterNumberName":"U-component_of_WINDS"},"data":[0,0,0,-0.0239,-0.0238,-0.0204,-0.0204,-0.0162,-0.0162,0,0,0,0,0,0,0,0,0,0,0,-0.0249,-0.0249,-0.0239,-0.0238,-0.0204,-0.0204,-0.0162,-0.0162,0,0,0,0,0,0,0,0,0,0,0,-0.025,-0.0249,-0.0249,-0.0238,-0.0204,-0.0204,-0.0162,-0.0187,0,0,0,0,0,0,0,0,0,0,-0.022,-0.023,-0.0249,-0.0249,-0.0238,-0.0204,-0.0204,-0.0188,-0.0186,-0.0178,0,-0.0171,0,-0.0166,-0.0159,-0.0159,0,0,0,-0.0237,-0.0233,-0.0223,-0.0249,-0.0237,-0.0204,-0.0219,-0.0187,-0.0184,-0.0174,-0.017,-0.0169,-0.0165,-0.0159,-0.0158,-0.0116,-0.0116,0,0,-0.0239,-0.0244,-0.0225,-0.0221,-0.0226,-0.022,-0.0218,-0.0185,-0.0181,-0.017,-0.0168,-0.0164,-0.0158,-0.0158,-0.0116,-0.0116,0,0,0,-0.0245,-0.0245,-0.0236,-0.0223,-0.0217,-0.0219,-0.0217,-0.0183,-0.0179,-0.0167,-0.0164,-0.0158,-0.0158,-0.0116,-0.0116,-0.0112,0,0,0,-0.0246,-0.0248,-0.0237,-0.0239,-0.0217,-0.0199,-0.0215,-0.0182,-0.0178,-0.0164,-0.0158,-0.0157,-0.0116,-0.0116,-0.0112,-0.0109,0,0,0,-0.0251,-0.0249,-0.0244,-0.024,-0.0225,-0.02,-0.0194,-0.0181,-0.0176,-0.0159,-0.0157,-0.0116,-0.0116,-0.0113,-0.0109,-0.0099,0,0,0,-0.0258,-0.024,-0.0244,-0.0223,-0.0225,-0.0197,-0.0195,-0.0173,-0.0158,-0.0158,-0.0116,-0.0116,-0.0113,-0.011,-0.01,-0.0091,-0.0088,0,0,-0.0238,-0.0238,-0.0225,-0.0228,-0.02,-0.0202,-0.0174,-0.0156,-0.015,-0.0128,-0.0127,-0.0112,-0.0109,-0.0099,-0.0069,-0.0066,0,0,0,-0.0221,-0.0211,-0.0203,-0.0189,-0.0176,-0.0164,-0.015,-0.0143,-0.0124,-0.0139,-0.0105,-0.0104,-0.0097,-0.0093,-0.0091,-0.0086,-0.0114,-0.0114,-0.0114,-0.0198,-0.0192,-0.0171,-0.0161,-0.0148,-0.0135,-0.0123,-0.0112,-0.011,-0.0102,-0.0095,-0.0078,-0.0073,-0.0071,-0.0066,-0.0091,-0.009,-0.009,-0.009,-0.0168,-0.0154,-0.0153,-0.0131,-0.0126,-0.0108,-0.0095,-0.0094,-0.0077,-0.0082,-0.0076,-0.0083,-0.0069,-0.0063,-0.009,-0.009,-0.009,-0.009,-0.009,-0.0152,-0.0145,-0.0138,-0.0118,-0.0103,-0.0094,-0.0078,-0.0074,-0.0069,-0.0063,-0.0056,-0.0056,-0.0056,-0.006,-0.006,-0.006,-0.006,-0.006,-0.006,-0.0139,-0.0131,-0.0118,-0.0103,-0.0094,-0.0081,-0.0068,-0.0059,-0.0048,-0.0046,-0.0046,-0.0045,-0.0068,-0.0074,-0.0059,-0.0059,-0.0059,-0.0059,-0.0059,-0.011,-0.0116,-0.0096,-0.0087,-0.0069,-0.0056,-0.005,-0.0033,-0.0025,-0.0017,-0.0018,-0.0036,-0.0035,-0.0037,-0.0042,-0.0019,-0.0019,-0.0019,-0.0019,-0.0097,-0.0097,-0.0075,-0.0062,-0.0048,-0.0041,-0.0019,-0.0009,-0.0,0.0005,0.0002,-0.0004,-0.0006,-0.0004,-0.0007,-0.0011,0.0019,0.0019,0.0019,-0.0079,-0.0078,-0.0059,-0.0051,-0.0037,-0.0025,-0.0005,0.0011,0.002,0.0021,0.0009,0.0007,-0.0003,-0.0006,-0.0005,-0.0009,-0.0017,0,0]},{"header":{"parameterUnit":"m.s-1","parameterCategory":1,"la1":30.2992,"la2":30.254,"lo1":-89.0895,"lo2":-89.0443,"dy":0.0025,"dx":0.0025,"nx":19,"ny":19,"refTime":"2026-04-23T21:00:00:Z","depth":0,"parameterNumber":3,"parameterNumberName":"V-component_of_WINDS"},"data":[0,0,0,3.3684,3.3683,3.3642,3.3642,3.3599,3.3599,0,0,0,0,0,0,0,0,0,0,0,3.3703,3.3702,3.3684,3.3683,3.3642,3.3642,3.3599,3.3599,0,0,0,0,0,0,0,0,0,0,0,3.3703,3.3703,3.3702,3.3683,3.3642,3.3642,3.3599,3.3626,0,0,0,0,0,0,0,0,0,0,3.3664,3.3688,3.3703,3.3702,3.3683,3.3642,3.3642,3.3627,3.3625,3.3622,0,3.3623,0,3.361,3.3597,3.3597,0,0,0,3.3677,3.3691,3.3674,3.3702,3.3682,3.3643,3.3659,3.3626,3.3623,3.3618,3.3622,3.362,3.361,3.3596,3.3596,3.3606,3.3606,0,0,3.3679,3.3698,3.3676,3.3672,3.3681,3.366,3.3658,3.3624,3.3628,3.3622,3.3619,3.3609,3.3596,3.3596,3.3605,3.3606,0,0,0,3.369,3.37,3.3684,3.3674,3.3667,3.3659,3.3656,3.363,3.3623,3.3618,3.3608,3.3596,3.3596,3.3605,3.3605,3.3641,0,0,0,3.3691,3.3706,3.3685,3.3696,3.3668,3.3648,3.3663,3.3625,3.3621,3.3609,3.3596,3.3595,3.3605,3.3605,3.3639,3.3654,0,0,0,3.3703,3.3707,3.3704,3.3697,3.3681,3.3648,3.3639,3.3624,3.3615,3.3597,3.3595,3.3604,3.3605,3.3638,3.3651,3.3663,0,0,0,3.372,3.3734,3.3705,3.3717,3.3682,3.3671,3.3639,3.363,3.3618,3.3596,3.3605,3.3605,3.3637,3.365,3.3662,3.3677,3.3685,0,0,3.3748,3.3738,3.3743,3.3716,3.3717,3.3676,3.368,3.365,3.3629,3.3614,3.3614,3.364,3.3651,3.3663,3.3724,3.3731,0,0,0,3.3758,3.3763,3.3759,3.375,3.3729,3.3713,3.3681,3.367,3.3657,3.3626,3.3646,3.3653,3.3659,3.3665,3.3671,3.3675,3.3609,3.3609,3.3609,3.3824,3.38,3.3808,3.3779,3.3771,3.374,3.3731,3.3711,3.3686,3.3692,3.3687,3.3727,3.3735,3.3739,3.3744,3.3693,3.3693,3.3693,3.3693,3.3862,3.3865,3.3836,3.3833,3.3808,3.3804,3.3775,3.3758,3.3751,3.3728,3.3732,3.3709,3.3748,3.3751,3.3695,3.3695,3.3695,3.3694,3.3694,3.3902,3.39,3.3889,3.3875,3.3868,3.3838,3.3834,3.381,3.3787,3.3791,3.3784,3.3783,3.378,3.379,3.379,3.379,3.379,3.379,3.379,3.3948,3.3935,3.3935,3.3917,3.391,3.3897,3.3867,3.3859,3.3843,3.3826,3.3825,3.3802,3.3756,3.3746,3.3792,3.3792,3.3792,3.3791,3.3791,3.3997,3.3983,3.3983,3.3976,3.3954,3.3949,3.392,3.3905,3.3895,3.3894,3.3869,3.384,3.3827,3.3822,3.3813,3.3874,3.3874,3.3874,3.3874,3.4031,3.4023,3.4019,3.401,3.3998,3.3973,3.3974,3.3952,3.3927,3.3919,3.3907,3.3893,3.3889,3.3878,3.3872,3.3863,3.3936,3.3936,3.3936,3.4059,3.405,3.4056,3.4033,3.4015,3.3999,3.4001,3.3991,3.3958,3.3938,3.3912,3.391,3.3887,3.3881,3.3859,3.385,3.3834,0,0]}]]